2021-105C (49466 NORAD) Tracking and Keplerian Element Data

This shows tracking and keplerian element data for the satellite.

Feedback or suggestion? Click here.




ElementValue
Catalog49466
Name2021-105C
Epoch Orbit3
Epoch Day320.66683855
Epoch Year2021
RAAN145.2954
Inclination74.9991
Eccentricity7.25E-05
Argument of Perigee320.3548
Mean Anonmoly39.8166
Mean Motion14.66507708
Decay Rate0.00208835
L11 49466U 21105C 21320.66683855 .00208835 00000+0 36507-1 0 9990
L22 49466 74.9991 145.2954 0000725 320.3548 39.8166 14.66507708 39

Live tracking and technical data element details for 2021-105C (NORAD 49466). 2021-105C can be tracked NOW for your location showing map with azimuth and elevation plus other details from your city location.

Track the satellite on the map from your city or location and see movement details for azimuth, elevation, latitude, longitude, range, height, and movement on the map or in text.







IsCatalogInMostPopularTable: catalog: 49466, numindb: 1
Update: records affected: 1



GetName: 49466 2021-105C

Hit Count: updated at: Wed, 08 Dec 2021 15:56:40 GMT